Volver al catálogo

OPS 4682 DEB

ActivoPO
NORAD 39609·DEBRIS·🇺🇸 United States

Lanzado Apr 3, 1965 desde Vandenberg Space Force Base

Loading…

Próximos Pases (próximas 24 horas)

TLE

ActualizadoSource: Space-Track

Época: Sep 12, 2026, 19:49 UTC

1 39609U 65027FS  26255.82599793  .00000703  00000-0  23675-2 0  9994
2 39609  90.2598  16.5438 0028940 179.0079 333.8895 12.98204785607676

Sigue OPS 4682 DEB en tiempo real con AllMySat

Download on the App Store